• In Sweden
  • List of Countries
  • For 7 days
  • Water Temperature
  • Satellite Maps
  • Weather Map
  • Weather Widgets
  • user-avatar
    Login

    Hourly Weather Ostashkovo

    Today, 18 October, Thursday

    Time Temperature Precipitation Wind Pressure Humidity
    00:00 +9°C° 0 mm 2 mps 746 mmHg 91%
    01:00 +9°C° 0 mm 2 mps 746 mmHg 92%
    02:00 +9°C° 0 mm 1 mps 746 mmHg 92%
    03:00 +9°C° 0 mm 1 mps 746 mmHg 92%
    04:00 +8°C° 0 mm 2 mps 746 mmHg 92%
    05:00 +8°C° 0 mm 2 mps 745 mmHg 93%
    06:00 +8°C° 0 mm 2 mps 745 mmHg 91%
    07:00 +9°C° 0 mm 2 mps 745 mmHg 89%
    08:00 +9°C° 0 mm 2 mps 745 mmHg 87%
    09:00 +12°C° 0 mm 2 mps 745 mmHg 82%
    10:00 +13°C° 0 mm 2 mps 745 mmHg 76%
    11:00 +14°C° 0 mm 3 mps 745 mmHg 70%
    12:00 +16°C° 0 mm 3 mps 744 mmHg 69%
    13:00 +16°C° 0 mm 3 mps 744 mmHg 67%
    14:00 +17°C° 0 mm 3 mps 744 mmHg 65%
    15:00 +16°C° 0 mm 2 mps 743 mmHg 72%
    16:00 +14°C° 0 mm 2 mps 743 mmHg 79%
    17:00 +13°C° 0 mm 2 mps 743 mmHg 86%
    18:00 +13°C° 0 mm 2 mps 743 mmHg 88%
    19:00 +12°C° 0 mm 2 mps 743 mmHg 90%
    20:00 +12°C° 0 mm 2 mps 742 mmHg 91%
    21:00 +12°C° 0 mm 2 mps 742 mmHg 92%
    22:00 +12°C° 0 mm 2 mps 742 mmHg 92%
    23:00 +12°C° 0 mm 2 mps 742 mmHg 92%

    Tomorrow, 19 October, Friday

    Time Temperature Precipitation Wind Pressure Humidity
    00:00 +10°C° 0 mm 2 mps 741 mmHg 93%
    01:00 +10°C° 0 mm 2 mps 741 mmHg 93%
    02:00 +10°C° 0 mm 2 mps 741 mmHg 93%
    03:00 +10°C° 0 mm 2 mps 741 mmHg 94%
    04:00 +9°C° 0 mm 2 mps 741 mmHg 94%
    05:00 +9°C° 0 mm 2 mps 740 mmHg 95%
    06:00 +10°C° 0 mm 2 mps 740 mmHg 94%
    07:00 +10°C° 0 mm 2 mps 740 mmHg 93%
    08:00 +10°C° 0 mm 2 mps 740 mmHg 92%
    09:00 +12°C° 0 mm 2 mps 740 mmHg 88%
    10:00 +13°C° 0 mm 3 mps 740 mmHg 84%
    11:00 +14°C° 0 mm 3 mps 740 mmHg 80%
    12:00 +14°C° 0 mm 3 mps 740 mmHg 79%
    13:00 +14°C° 0 mm 3 mps 740 mmHg 78%
    14:00 +14°C° 0 mm 3 mps 740 mmHg 77%
    15:00 +14°C° 0 mm 2 mps 740 mmHg 81%
    16:00 +13°C° 0 mm 2 mps 740 mmHg 84%
    17:00 +12°C° 0 mm 2 mps 740 mmHg 88%
    18:00 +10°C° 0 mm 2 mps 741 mmHg 88%
    19:00 +9°C° 0 mm 2 mps 741 mmHg 87%
    20:00 +9°C° 0 mm 3 mps 741 mmHg 87%
    21:00 +8°C° 0 mm 2 mps 742 mmHg 88%
    22:00 +7°C° 0 mm 2 mps 742 mmHg 90%
    23:00 +6°C° 0 mm 2 mps 742 mmHg 91%

    Day after tomorrow, 20 October, Saturday

    Time Temperature Precipitation Wind Pressure Humidity
    00:00 +5°C° 0 mm 2 mps 742 mmHg 92%
    01:00 +5°C° 0 mm 2 mps 742 mmHg 92%
    02:00 +4°C° 0 mm 2 mps 742 mmHg 93%
    03:00 +4°C° 0 mm 2 mps 742 mmHg 93%
    04:00 +4°C° 0 mm 2 mps 743 mmHg 94%
    05:00 +4°C° 0 mm 1 mps 743 mmHg 94%
    06:00 +4°C° 0 mm 2 mps 743 mmHg 92%
    07:00 +4°C° 0 mm 2 mps 743 mmHg 90%
    08:00 +5°C° 0 mm 2 mps 743 mmHg 88%
    09:00 +6°C° 0 mm 2 mps 743 mmHg 81%
    10:00 +7°C° 0 mm 2 mps 743 mmHg 75%
    11:00 +8°C° 0 mm 2 mps 743 mmHg 69%
    12:00 +8°C° 0 mm 2 mps 743 mmHg 67%
    13:00 +9°C° 0 mm 2 mps 743 mmHg 65%
    14:00 +9°C° 0 mm 2 mps 743 mmHg 63%
    15:00 +8°C° 0 mm 2 mps 743 mmHg 68%
    16:00 +8°C° 0 mm 1 mps 743 mmHg 73%
    17:00 +6°C° 0 mm 1 mps 742 mmHg 79%
    18:00 +6°C° 0 mm 1 mps 742 mmHg 80%
    19:00 +6°C° 0 mm 1 mps 742 mmHg 82%
    20:00 +6°C° 0 mm 1 mps 742 mmHg 83%
    21:00 +6°C° 0 mm 1 mps 742 mmHg 84%
    22:00 +6°C° 0 mm 1 mps 742 mmHg 85%
    23:00 +5°C° 0 mm 1 mps 742 mmHg 86%

    21 October, Sunday

    Time Temperature Precipitation Wind Pressure Humidity
    00:00 +5°C° 0 mm 1 mps 742 mmHg 86%
    01:00 +5°C° 0 mm 1 mps 742 mmHg 87%
    02:00 +5°C° 0 mm 1 mps 741 mmHg 88%
    03:00 +5°C° 0 mm 1 mps 741 mmHg 89%
    04:00 +5°C° 0 mm 1 mps 741 mmHg 90%
    05:00 +5°C° 0 mm 1 mps 741 mmHg 91%
    06:00 +5°C° 0 mm 1 mps 741 mmHg 90%
    07:00 +5°C° 0 mm 1 mps 742 mmHg 90%
    08:00 +5°C° 0 mm 1 mps 742 mmHg 89%
    09:00 +6°C° 0 mm 1 mps 742 mmHg 83%
    10:00 +7°C° 0 mm 2 mps 742 mmHg 77%
    11:00 +8°C° 0 mm 2 mps 743 mmHg 71%
    12:00 +8°C° 0 mm 2 mps 743 mmHg 69%
    13:00 +8°C° 0 mm 2 mps 743 mmHg 67%
    14:00 +8°C° 0 mm 2 mps 743 mmHg 65%
    15:00 +7°C° 0 mm 2 mps 743 mmHg 69%
    16:00 +7°C° 0 mm 1 mps 744 mmHg 73%
    17:00 +7°C° 0 mm 1 mps 744 mmHg 77%
    18:00 +6°C° 0 mm 1 mps 744 mmHg 80%
    19:00 +5°C° 0 mm 1 mps 744 mmHg 83%
    20:00 +4°C° 0 mm 0 mps 745 mmHg 86%
    21:00 +3°C° 0 mm 0 mps 745 mmHg 87%
    22:00 +3°C° 0 mm 0 mps 745 mmHg 88%
    23:00 +3°C° 0 mm 0 mps 745 mmHg 89%

    22 October, Monday

    Time Temperature Precipitation Wind Pressure Humidity
    00:00 +4°C° 0 mm 1 mps 745 mmHg 89%
    01:00 +4°C° 0 mm 1 mps 745 mmHg 90%
    02:00 +3°C° 0 mm 1 mps 745 mmHg 90%
    03:00 +3°C° 0 mm 1 mps 744 mmHg 91%
    04:00 +2°C° 0 mm 2 mps 744 mmHg 92%
    05:00 +2°C° 0 mm 2 mps 744 mmHg 93%
    06:00 +1°C° 0 mm 3 mps 744 mmHg 90%
    07:00 +2°C° 0 mm 3 mps 743 mmHg 88%
    08:00 +1°C° 0 mm 4 mps 743 mmHg 85%
    09:00 +4°C° 0 mm 4 mps 742 mmHg 79%
    10:00 +5°C° 0 mm 5 mps 742 mmHg 73%
    11:00 +7°C° 0 mm 5 mps 742 mmHg 67%
    12:00 +7°C° 0 mm 6 mps 741 mmHg 65%
    13:00 +7°C° 0 mm 6 mps 740 mmHg 64%
    14:00 +8°C° 0 mm 6 mps 739 mmHg 63%
    15:00 +7°C° 0 mm 6 mps 739 mmHg 65%
    16:00 +7°C° 0 mm 6 mps 739 mmHg 67%
    17:00 +7°C° 0 mm 5 mps 738 mmHg 70%
    18:00 +6°C° 0.1 mm 5 mps 738 mmHg 73%
    19:00 +6°C° 0.1 mm 5 mps 738 mmHg 77%
    20:00 +6°C° 0.1 mm 5 mps 738 mmHg 81%
    21:00 +6°C° 0.3 mm 4 mps 737 mmHg 84%
    22:00 +6°C° 0.3 mm 4 mps 737 mmHg 87%
    23:00 +7°C° 0.3 mm 3 mps 737 mmHg 89%

    23 October, Tuesday

    Time Temperature Precipitation Wind Pressure Humidity
    00:00 +7°C° 0.5 mm 3 mps 737 mmHg 91%
    01:00 +7°C° 0.5 mm 2 mps 737 mmHg 93%
    02:00 +6°C° 0.5 mm 2 mps 737 mmHg 95%
    03:00 +6°C° 0.4 mm 2 mps 736 mmHg 96%
    04:00 +6°C° 0.4 mm 2 mps 736 mmHg 96%
    05:00 +7°C° 0.4 mm 1 mps 736 mmHg 97%
    06:00 +7°C° 0.4 mm 1 mps 735 mmHg 97%
    07:00 +7°C° 0.4 mm 1 mps 735 mmHg 96%
    08:00 +7°C° 0.4 mm 1 mps 735 mmHg 96%
    09:00 +7°C° 0.4 mm 1 mps 734 mmHg 94%
    10:00 +7°C° 0.4 mm 1 mps 734 mmHg 92%
    11:00 +8°C° 0.4 mm 1 mps 734 mmHg 89%
    12:00 +8°C° 0.3 mm 1 mps 734 mmHg 87%
    13:00 +8°C° 0.3 mm 1 mps 733 mmHg 86%
    14:00 +8°C° 0.3 mm 1 mps 733 mmHg 84%
    15:00 +7°C° 0.1 mm 1 mps 733 mmHg 85%
    16:00 +7°C° 0.1 mm 1 mps 733 mmHg 87%
    17:00 +7°C° 0.1 mm 1 mps 733 mmHg 88%
    18:00 +6°C° 0.1 mm 1 mps 733 mmHg 89%
    19:00 +6°C° 0.1 mm 1 mps 733 mmHg 89%
    20:00 +5°C° 0.1 mm 2 mps 733 mmHg 89%
    21:00 +4°C° 0 mm 2 mps 733 mmHg 90%
    22:00 +4°C° 0 mm 2 mps 734 mmHg 91%
    23:00 +3°C° 0 mm 2 mps 734 mmHg 92%
    Show more